Location: Sumpter
(44.7457°N, 118.2022°W)
Time: 13:08:29
(UTC-07:00)

ISS - Pass Details

Date: 25 February 2019
Orbit: 406 x 411 km, 51.6° (Epoch: 22 March)

Event Time Altitude Azimuth Distance (km) Brightness Sun altitude
Exits shadow 05:05:44 16° 194° (SSW) 1,164 -1.7 -17.0°
Maximum altitude 05:07:49 30° 139° (SE) 750 -2.1 -16.7°
Drops below altitude 10° 05:10:43 10° 77° (ENE) 1,452 0.3 -16.2°
Sets 05:12:58 0° 66° (ENE) 2,328 1.4 -15.8°
